Location: Lansingburgh
(42.7845°N, 73.6696°W)
Time: 00:39:15
(UTC+00:00)

BlueWalker 3 - Pass Details

Date: 19 December 2025
Orbit: 451 x 463 km, 53.2° (Epoch: 15 January)

Event Time Altitude Azimuth Distance (km) Brightness Sun altitude
Rises 11:26:47 0° 209° (SSW) 2,447 5.4 -9.7°
Reaches altitude 10° 11:29:02 10° 199° (SSW) 1,580 4.5 -9.3°
Maximum altitude 11:32:15 32° 135° (SE) 793 3.7 -8.7°
Drops below altitude 10° 11:35:29 10° 70° (ENE) 1,596 5.2 -8.2°
Sets 11:37:46 0° 60° (ENE) 2,476 6.0 -7.8°
